TimeCET,TemperatureF,Dew PointF,Humidity,Sea Level PressureIn,VisibilityMPH,Wind Direction,Wind SpeedMPH,Gust SpeedMPH,PrecipitationIn,Events,Conditions,WindDirDegrees,DateUTC
12:00 AM,30.2,26.6,86,30.09,3.7,SW,1.2,-,N/A,,Overcast,220,2013-02-14 23:00:00
1:00 AM,30.2,26.6,86,30.09,3.7,Calm,Calm,-,N/A,,Overcast,0,2013-02-15 00:00:00
2:00 AM,30.2,28.4,93,30.06,3.7,Calm,Calm,-,N/A,,Overcast,0,2013-02-15 01:00:00
3:00 AM,30.2,28.4,93,30.06,3.1,ESE,2.3,-,N/A,,Overcast,110,2013-02-15 02:00:00
4:00 AM,30.2,28.4,93,30.04,2.5,East,2.3,-,N/A,,Overcast,100,2013-02-15 03:00:00
5:00 AM,30.2,28.4,93,30.04,1.9,East,3.5,-,N/A,,Overcast,100,2013-02-15 04:00:00
6:00 AM,30.2,28.4,93,30.04,1.9,East,2.3,-,N/A,,Overcast,100,2013-02-15 05:00:00
7:00 AM,30.2,28.4,93,30.04,0.7,SE,1.2,-,N/A,,Overcast,140,2013-02-15 06:00:00
7:10 AM,30.2,28.4,93,30.04,0.6,Calm,Calm,-,N/A,,Overcast,0,2013-02-15 06:10:00
8:00 AM,30.2,28.4,93,30.04,0.7,Calm,Calm,-,N/A,,Overcast,0,2013-02-15 07:00:00
9:00 AM,30.2,28.4,93,30.04,0.9,Variable,2.3,-,N/A,,Overcast,0,2013-02-15 08:00:00
10:00 AM,32.0,28.4,87,30.04,1.2,Variable,1.2,-,N/A,,Overcast,0,2013-02-15 09:00:00
11:00 AM,32.0,28.4,87,30.06,1.2,Calm,Calm,-,N/A,,Overcast,0,2013-02-15 10:00:00
12:00 PM,33.8,28.4,81,30.06,1.2,Calm,Calm,-,N/A,,Overcast,0,2013-02-15 11:00:00
1:05 PM,33.8,28.4,81,30.06,1.2,Calm,Calm,-,N/A,,Overcast,0,2013-02-15 12:05:00
2:00 PM,33.8,28.4,81,30.06,1.2,SSE,1.2,-,N/A,Snow,Light Snow,150,2013-02-15 13:00:00
2:30 PM,32.0,30.2,93,30.06,0.8,SSW,1.2,-,N/A,Snow,Light Snow,210,2013-02-15 13:30:00
3:00 PM,32.0,30.2,93,30.06,0.6,Calm,Calm,-,N/A,Snow,Light Snow,0,2013-02-15 14:00:00
3:31 PM,32.0,30.2,93,30.06,0.9,Calm,Calm,-,N/A,Snow,Light Snow,0,2013-02-15 14:31:00
4:00 PM,32.0,30.2,93,30.06,0.9,SW,1.2,-,N/A,Snow,Light Snow,230,2013-02-15 15:00:00
5:00 PM,32.0,30.2,93,30.06,1.2,West,2.3,-,N/A,Snow,Light Snow,270,2013-02-15 16:00:00
6:00 PM,32.0,30.2,93,30.09,1.2,WSW,1.2,-,N/A,Snow,Light Snow,240,2013-02-15 17:00:00
7:00 PM,32.0,30.2,93,30.09,1.9,West,2.3,-,N/A,,Overcast,270,2013-02-15 18:00:00
8:00 PM,32.0,30.2,93,30.09,1.9,Calm,Calm,-,N/A,,Overcast,0,2013-02-15 19:00:00
8:21 PM,32.0,30.2,93,30.12,1.9,Calm,Calm,-,N/A,,Overcast,0,2013-02-15 19:21:00
9:00 PM,32.0,30.2,93,30.12,1.9,Calm,Calm,-,N/A,,Overcast,0,2013-02-15 20:00:00
10:00 PM,32.0,30.2,93,30.12,1.9,WSW,3.5,-,N/A,,Overcast,250,2013-02-15 21:00:00
11:00 PM,32.0,30.2,93,30.12,1.9,West,2.3,-,N/A,,Overcast,260,2013-02-15 22:00:00
11:31 PM,32.0,30.2,93,30.12,1.9,West,3.5,-,N/A,,Overcast,270,2013-02-15 22:31:00